Home   Weather   Tsingtao   Past weeks

Flag for China Past Weather in Tsingtao, Shandong, China — Yesterday and Last 2 Weeks

Now
73 °F

Passing clouds.


Feels Like: 74 °F
Forecast: 57 / 72 °F
Wind: 10 mph from Northwest

Location: Qingdao Airport

Current Time: Apr 27, 2017 at 7:16:56 pm

Latest Report: Apr 27, 2017 at 6:00 pm


Visibility: N/A

Pressure: 29.86 "Hg

Humidity: 14%

Dew Point: 21 °F

Location of TsingtaoLocation

Past Weather in Tsingtao — Graph

°F

Tsingtao Temperature Yesterday

Maximum temperature yesterday: 72 °F (at 1:00 pm)
Minimum temperature yesterday: 48 °F (at 5:00 am)
Average temperature yesterday: 59 °F

High & Low Weather Summary for the Past Weeks

 TemperatureHumidityPressure
High82 °F (Apr 15, 3:00 pm)94% (Apr 17, 4:00 am)30.18 "Hg (Apr 17, 4:00 am)
Low43 °F (Apr 22, 4:00 am)11% (Apr 27, 2:00 pm)29.42 "Hg (Apr 18, 3:00 am)
Average62 °F52%29.88 "Hg
* Reported Apr 12 6:00 pm — Apr 27 6:00 pm, Tsingtao, Weather by CustomWeather, © 2017

Note: Actual official high and low records may vary slightly from our data, if they occured in-between our weather recording intervals... More about our weather records

Advertising

Tsingtao Weather History for the Previous 24 Hours

Scroll right to see more
 ConditionsComfort  
Time TempWeatherWind HumidityBarometerVisibility
6:00 pm
Thu, Apr 27
73 °FPassing clouds.10 mph14%29.86 "HgN/A
5:00 pm75 °FPassing clouds.13 mph13%29.86 "HgN/A
4:00 pm75 °FPassing clouds.13 mph12%29.89 "HgN/A
3:00 pm75 °FPassing clouds.15 mph13%29.89 "HgN/A
2:00 pm77 °FPassing clouds.15 mph11%29.92 "HgN/A
1:00 pm75 °FPassing clouds.13 mph13%29.95 "HgN/A
12:00 pm73 °FPassing clouds.13 mph15%29.98 "HgN/A
11:00 am73 °FPassing clouds.13 mph14%30.01 "HgN/A
10:00 am70 °FPassing clouds.10 mph23%30.04 "HgN/A
9:00 am66 °FPassing clouds.13 mph26%30.04 "HgN/A
8:00 am59 °FPassing clouds.6 mph36%30.07 "HgN/A
7:00 am55 °FSunny.6 mph44%30.07 "Hg10 mi
6:00 am46 °FSunny.3 mph66%30.07 "Hg10 mi
5:00 am45 °FClear.1 mph61%30.07 "Hg10 mi
4:00 am45 °FClear.3 mph61%30.09 "Hg10 mi
3:00 am50 °FClear.3 mph54%30.09 "Hg10 mi
2:00 am48 °FClear.1 mph50%30.12 "Hg10 mi
1:00 am48 °FClear.No wind46%30.12 "Hg10 mi
12:00 am50 °FClear.1 mph37%30.15 "Hg10 mi
11:00 pm
Wed, Apr 26
54 °FClear.1 mph30%30.15 "Hg10 mi
10:00 pm52 °FClear.3 mph32%30.15 "Hg10 mi
9:00 pm52 °FClear.6 mph32%30.15 "Hg10 mi
8:00 pm57 °FClear.10 mph25%30.15 "Hg10 mi
7:00 pm59 °FClear.13 mph20%30.12 "Hg10 mi
Weather by CustomWeather, © 2017

See weather overviewHow to use our weather pages